GLOBALSTAR M002 [-]

Last updated on Fri Dec 29 2023 00:02:56 GMT+0000 (Coordinated Universal Time)

1 25164U 98008C 23362.16463340 -.00000093 00000+0 -31611-3 0 9994 2 25164 51.9993 146.6823 0001132 178.0722 182.0102 11.61497714121739

Satellite not in orbit

GLOBALSTAR M002 [-]